Regional Weather Roundup
Issued by NWS

Home | Current Version | Previous Version | Graphics & Text | Print | Product List | Glossary On
Versions: 1 2 3 4 5 6 7 8 9 10 11 12 13 14 15 16 17 18 19 20 21 22 23 24 25 26 27 28 29 30 31 32 33 34 35 36 37 38 39 40 41 42 43 44 45 46 47 48 49 50
000
ASUS44 KMEG 230510
RWRTN
TENNESSEE HOURLY STATE WEATHER ROUNDUP
NATIONAL WEATHER SERVICE MEMPHIS TN
1200 AM CDT FRI JUN 23 2017

TNZ002-004-019-021-049-052-054-088>092-230600-
WEST TENNESSEE

CITY           SKY/WX    TMP DP  RH WIND       PRES   REMARKS
MEMPHIS INTL   CLOUDY    79  76  90 S15       29.76S
NWS MEMPHIS      N/A     77 N/A N/A MISG        N/A
JACKSON        PTCLDY    77  75  93 S9        29.81S
SOMERVILLE     PTCLDY    77  75  94 SE8G14    29.78F
COVINGTON      MOCLDY    77  75  94 SE9G17    29.77S
UNION CITY     CLEAR     77  75  94 S13       29.78S
BOLIVAR        MOCLDY    75  73  94 SE7       29.81S
PARIS          MOCLDY    77  73  88 S10       29.81F
HUNTINGDON     CLOUDY    77  73  88 S8        29.81F
LEXINGTON      CLOUDY    77  73  88 SE6       29.83F
SELMER         MOCLDY    77  73  88 S9G16     29.84S
SAVANNAH       MOCLDY    79  73  83 S13       29.84S
$$

TNZ008-025-027-028-033-062-065-066-230600-
NORTH MIDDLE TENNESSEE

CITY           SKY/WX    TMP DP  RH WIND       PRES   REMARKS
NASHVILLE      CLOUDY    77  73  87 S9        29.90S
PORTLAND       MOCLDY    75  73  94 S8G15     29.88S
CLARKSVILLE    CLOUDY    76  72  87 S6        29.85S
SMYRNA         CLOUDY    77  73  87 S5        29.91S
COOKEVILLE     CLOUDY    75  72  88 VRB5      29.94F
GALLATIN       MOCLDY    75  73  94 S7        29.92S
CROSSVILLE     CLOUDY    72  69  90 S5        30.02F
$$

TNZ061-075-076-078-094-096-097-230600-
SOUTH MIDDLE TENNESSEE

CITY           SKY/WX    TMP DP  RH WIND       PRES   REMARKS
FAYETTEVILLE   CLOUDY    75  73  94 S14       29.93F
TULLAHOMA      CLOUDY    75  72  88 S10       29.96S
WINCHESTER     CLOUDY    75  73  94 VRB3        N/A
MCMINNVILLE    MOCLDY    77  73  88 S7        29.95R
COLUMBIA       CLOUDY    79  75  89 S8G17     29.87F
SHELBYVILLE    CLOUDY    77  73  88 S12G17    29.92F
$$

TNZ017-018-042-046-047-230600-
NORTHEAST TENNESSEE

CITY           SKY/WX    TMP DP  RH WIND       PRES   REMARKS
TRI CITIES     CLOUDY    72  69  90 SW5       30.05S
ELIZABETHTON   CLOUDY    70  68  94 CALM      30.05F
$$

TNZ012-013-036-069-073-074-230600-
CENTRAL EAST TENNESSEE

CITY           SKY/WX    TMP DP  RH WIND       PRES   REMARKS
KNOXVILLE      CLOUDY    72  70  93 CALM      29.99F
OAK RIDGE      LGT RAIN  74  71  91 CALM      30.01S
DOWNTOWN KNOXV   N/A     73  73 100 CALM      29.99S FOG
GATLINBURG     CLOUDY    72  70  94 CALM      30.00F
MORRISTOWN     CLOUDY    72  72 100 CALM      30.01F
JACKSBORO      CLOUDY    73  72  94 CALM      30.02F FOG
$$

TNZ083-085-099-230600-
SOUTHEAST TENNESSEE

CITY           SKY/WX    TMP DP  RH WIND       PRES   REMARKS
CHATTANOOGA    RAIN      75  73  93 S3        29.98F
$$

SKY/WX REPORTED AS FAIR MEANS FEW OR NO CLOUDS BELOW
12 THOUSAND FEET.




USA.gov is the U.S. government's official web portal to all federal, state and local government web resources and services.